Wind_Speed
10 5 5 9 10 7 10 22 25 25 30 28 27 26 26 29 34 35 38 38 38 38 38 37 37 34 34 39 38 33 34 40 41 40 41 41 42 43 44 43 43 46 49 50
6 7 9 14 14 9 11 15 14 21 25 25 30 28 31 33 33 32 32 33 32 33 35 35 33 33 36 41 32 32 37 37 40 42 42 42 43 45 47 48 50 50 50 52
9 16 12 8 8 6 18 9 21 26 30 30 23 33 26 32 30 35 34 32 33 31 31 35 34 33 36 38 38 34 36 42 44 44 46 46 46 48 48 49 50 52 53 55
6 16 8 5 9 11 13 20 27 27 31 17 31 25 27 25 41 30 29 30 29 27 31 31 35 39 39 38 36 39 45 46 48 48 46 46 47 47 48 49 49 49 50 50
10 8 3 9 17 15 16 21 24 24 27 20 16 33 22 41 47 35 37 32 26 32 35 32 34 42 38 34 45 43 46 47 48 48 46 47 49 51 52 52 51 49 48 47
14 16 13 14 18 19 22 22 24 27 22 27 28 15 32 37 36 36 34 32 34 34 33 36 37 44 46 52 45 45 46 47 46 45 47 48 48 48 47 47 47 48 49 48
5 11 19 16 16 18 22 25 23 15 14 21 22 24 36 27 32 30 31 32 32 34 36 38 41 46 49 51 52 50 50 48 46 46 47 46 45 45 46 45 43 40 38 37
11 25 22 27 24 23 21 23 20 26 24 19 18 30 26 31 29 31 32 34 37 39 40 40 45 46 48 51 53 52 46 44 44 44 43 43 44 43 41 39 37 37 35 34
11 18 21 25 21 27 24 23 28 24 15 16 22 26 24 26 32 33 35 36 38 38 38 46 46 45 45 45 45 41 40 40 39 39 40 39 37 38 37 36 36 35 35 34
15 13 27 30 27 22 32 31 20 10 9 6 17 24 27 31 32 34 35 34 33 38 46 45 42 37 40 41 42 39 37 35 35 34 33 35 37 39 40 37 34 32 29 23
17 17 18 27 29 34 28 19 13 7 6 7 12 24 24 30 33 36 37 39 40 42 43 40 39 39 41 40 37 34 34 33 28 30 35 39 39 31 25 19 16 15 14 13
18 18 21 22 31 26 20 13 7 7 8 10 13 24 25 30 35 37 39 38 39 40 37 37 43 39 35 31 32 31 28 26 29 33 35 31 24 20 18 16 14 13 11 8
20 25 23 23 31 25 18 8 6 9 14 18 13 24 28 30 35 38 39 41 36 33 35 36 34 28 27 29 26 21 24 27 30 28 26 23 20 18 17 15 14 13 14 13
20 23 23 17 19 21 12 6 8 11 14 15 22 25 30 34 37 41 41 36 36 35 35 30 28 29 27 23 17 19 22 22 27 23 22 22 23 23 23 22 19 18 16 15
22 23 18 16 14 9 6 7 11 14 16 17 22 27 30 33 37 39 37 36 37 34 30 25 26 26 22 15 17 19 17 17 26 26 25 25 25 26 27 28 29 29 25 23
20 17 16 12 5 5 6 9 13 15 17 20 25 28 31 34 35 38 38 36 36 33 28 23 25 20 13 14 16 14 16 20 22 25 27 28 27 28 29 30 31 32 33 33
17 15 9 8 5 5 7 11 14 16 20 22 24 28 32 38 39 38 38 37 31 30 25 17 18 15 11 12 13 13 15 18 19 20 21 23 24 26 27 28 28 28 28 28
17 12 9 5 5 4 8 11 14 18 20 24 26 29 32 37 39 33 36 34 29 27 21 16 14 8 9 9 12 13 14 17 19 19 19 20 23 25 25 26 26 26 28 29
14 9 9 6 5 5 9 11 15 19 21 24 27 30 33 35 41 36 37 33 28 23 17 15 11 6 8 8 11 12 14 17 19 19 20 21 22 22 23 23 24 25 26 26
8 7 6 6 5 7 10 13 17 20 23 27 29 31 33 36 40 39 39 33 27 20 14 12 6 4 5 7 11 12 13 15 16 19 20 20 21 20 21 24 26 26 28 29
5 7 6 6 7 8 11 15 18 22 25 27 28 30 32 36 37 38 36 32 25 17 10 8 1 3 3 5 11 12 12 13 15 17 18 18 19 21 23 24 23 22 23 25
9 7 9 6 7 10 13 16 18 22 24 27 28 30 33 36 38 37 35 27 23 13 7 3 3 4 2 5 10 9 11 13 14 14 14 15 18 19 19 19 20 23 26 28
8 7 6 7 8 12 14 16 20 23 26 27 28 30 32 35 38 37 33 26 21 10 4 1 6 6 3 4 7 8 9 11 12 12 14 17 16 16 19 21 22 24 26 28
8 7 6 8 10 13 15 17 22 24 26 27 28 30 32 35 37 35 30 27 21 8 0 4 8 7 4 4 6 7 8 8 10 12 13 13 15 17 19 22 23 24 26 27
5 5 8 10 12 15 16 20 23 25 26 27 27 29 31 34 35 32 27 25 19 8 3 6 9 8 5 5 5 5 6 8 9 9 11 12 14 17 19 21 23 24 24 24
4 7 10 12 14 16 19 22 23 24 25 25 26 28 30 32 32 30 25 21 15 12 7 7 9 7 5 5 5 5 6 8 8 7 11 12 15 16 19 21 22 22 21 22
Wind_Direction
80 161 198 181 212 258 271 259 269 291 294 297 296 295 296 299 299 296 296 295 295 296 298 297 296 298 299 290 283 281 286 292 292 294 295 294 291 289 286 284 279 276 277 277
97 200 215 238 267 293 300 313 284 330 313 308 308 307 301 301 302 304 310 307 304 304 299 299 300 300 300 292 282 287 293 297 297 297 295 293 291 289 288 287 282 281 276 273
229 236 270 269 307 303 290 268 281 301 313 315 304 310 303 313 310 309 310 309 310 306 310 309 304 303 293 297 302 300 300 301 298 297 295 293 290 289 288 285 283 281 277 274
234 257 275 310 288 278 301 292 294 311 322 316 313 314 278 317 297 299 313 318 315 305 314 313 300 305 298 296 307 304 300 300 299 298 298 297 295 292 290 289 286 284 282 281
219 288 299 287 262 293 281 295 306 328 325 286 284 326 318 314 308 317 316 312 306 306 310 311 308 299 292 302 319 302 298 298 297 297 297 298 297 296 296 295 293 291 289 287
255 268 286 264 301 306 307 326 330 317 308 328 306 280 304 300 302 307 314 315 312 313 311 312 310 302 304 312 309 302 299 301 301 303 302 301 300 299 297 295 295 294 292 290
329 291 300 296 321 316 327 309 321 319 295 312 321 302 283 291 311 314 316 319 317 312 308 306 307 306 306 308 308 308 307 307 307 306 305 305 304 302 301 297 294 292 290 288
281 292 298 302 309 312 336 308 325 300 307 299 295 269 296 307 314 316 316 317 314 310 308 313 315 314 312 312 309 311 312 307 307 307 308 306 305 301 298 297 296 295 293 291
281 271 284 289 310 312 313 309 309 307 343 319 296 298 290 311 314 320 321 319 315 308 313 318 315 314 318 319 322 321 313 311 311 311 310 308 307 307 305 303 301 299 297 296
276 286 291 300 311 316 320 320 325 310 310 324 304 302 310 315 323 324 323 321 315 311 314 314 314 317 324 322 324 320 319 318 318 316 315 315 314 311 309 305 302 300 299 298
291 293 295 320 312 317 319 317 316 329 311 314 305 299 316 320 325 324 321 321 317 312 314 317 317 316 320 322 325 327 325 324 324 325 325 321 320 322 328 326 323 321 318 317
304 299 306 285 311 317 321 326 325 339 321 307 334 300 321 325 326 326 325 323 320 319 320 318 316 321 321 327 328 329 332 337 337 334 330 335 344 351 352 354 356 0 7 15
306 304 312 305 317 320 329 319 325 332 327 324 337 317 329 329 329 331 329 326 326 326 325 330 336 335 333 332 336 345 351 348 346 345 355 8 17 20 17 19 21 22 32 34
302 302 303 286 287 293 306 309 325 332 332 318 325 326 334 336 334 333 332 331 330 328 329 336 337 339 339 342 356 1 359 12 10 15 27 37 45 49 52 55 56 55 54 54
300 302 301 302 296 280 285 312 324 328 331 332 330 336 335 338 336 335 335 334 331 333 332 336 337 341 347 3 11 9 13 22 36 43 46 50 57 63 66 67 66 64 65 70
302 300 306 313 284 271 289 314 324 333 336 338 335 337 337 340 340 340 338 337 335 337 333 334 338 346 6 19 18 25 39 42 44 45 48 50 53 58 61 64 66 69 70 71
299 299 296 278 264 267 298 320 327 332 333 337 336 336 338 339 346 343 340 341 341 344 346 341 346 356 22 28 22 21 38 38 37 38 39 45 48 55 59 60 60 61 64 68
299 294 286 227 229 268 296 315 325 329 335 335 336 338 340 341 343 346 342 341 341 349 356 357 359 20 28 29 19 18 33 32 34 37 46 49 55 61 61 63 64 63 66 68
293 273 222 214 236 269 294 315 324 329 336 335 338 340 340 342 340 347 346 344 336 338 351 354 4 34 28 29 22 20 31 33 35 44 52 55 59 60 60 60 59 64 67 71
283 209 202 207 236 275 312 322 326 332 336 340 340 339 339 343 341 347 344 341 337 335 336 347 8 51 34 37 24 23 32 36 53 56 55 56 56 55 59 63 70 70 73 75
217 198 200 219 257 294 314 322 330 333 338 336 335 337 339 343 343 344 342 340 336 332 325 336 0 99 74 48 29 27 39 63 68 54 59 61 63 66 71 71 72 72 74 79
213 191 222 238 277 308 320 325 332 335 334 333 335 337 341 343 344 345 342 341 343 330 322 314 183 149 116 55 36 40 66 71 60 55 66 66 72 76 68 70 78 83 86 88
221 235 246 270 302 317 320 326 332 335 334 333 335 340 342 345 345 345 345 344 340 331 311 180 172 159 104 75 51 64 79 63 63 69 73 78 74 68 77 82 86 88 92 94
231 233 268 292 310 316 318 326 333 334 333 335 339 342 343 348 348 347 348 351 347 337 231 157 163 156 124 105 77 83 69 55 73 79 75 62 72 82 87 95 99 99 97 95
227 254 285 310 318 315 320 327 332 334 335 338 342 343 346 351 350 350 353 359 4 27 86 142 154 152 136 131 100 93 69 73 73 66 67 84 94 97 101 106 104 101 99 98
267 291 303 311 311 312 322 329 331 333 336 340 342 346 348 353 352 354 357 5 21 49 69 126 145 141 142 149 120 86 77 82 58 59 87 101 103 108 113 111 108 106 105 102
Height
5903 5908 5907 5910 5908 5906 5906 5901 5894 5889 5889 5887 5885 5882 5877 5874 5869 5864 5859 5855 5850 5846 5841 5836 5831 5828 5824 5819 5815 5812 5809 5805 5800 5796 5793 5789 5784 5780 5775 5772 5769 5766 5761 5758
5910 5910 5907 5906 5905 5904 5904 5903 5877 5885 5885 5884 5878 5876 5872 5867 5860 5857 5852 5847 5843 5839 5834 5830 5825 5821 5816 5811 5805 5802 5799 5794 5792 5786 5783 5780 5774 5769 5764 5760 5755 5754 5751 5747
5910 5906 5904 5903 5905 5903 5896 5896 5891 5888 5882 5879 5872 5867 5865 5859 5854 5850 5846 5842 5837 5831 5826 5822 5819 5814 5809 5803 5798 5793 5789 5785 5782 5778 5773 5769 5762 5757 5753 5747 5743 5739 5736 5733
5907 5903 5902 5903 5903 5898 5898 5890 5888 5884 5879 5879 5870 5865 5846 5854 5845 5842 5839 5835 5831 5825 5822 5818 5811 5808 5801 5796 5790 5786 5780 5776 5771 5766 5760 5756 5750 5744 5739 5734 5731 5726 5722 5718
5901 5902 5903 5902 5896 5894 5894 5888 5885 5882 5877 5869 5869 5861 5848 5851 5840 5840 5837 5833 5829 5823 5818 5813 5808 5800 5792 5787 5783 5778 5772 5767 5761 5755 5750 5744 5737 5731 5725 5719 5714 5710 5706 5703
5902 5899 5897 5895 5892 5891 5887 5883 5884 5880 5874 5870 5866 5864 5854 5851 5846 5840 5834 5829 5824 5819 5813 5808 5802 5791 5785 5779 5775 5768 5762 5757 5750 5744 5737 5731 5725 5719 5713 5707 5702 5697 5693 5689
5899 5897 5892 5892 5892 5888 5885 5883 5879 5880 5878 5874 5860 5862 5851 5848 5842 5837 5830 5824 5819 5814 5808 5802 5795 5787 5779 5772 5765 5759 5751 5745 5738 5731 5725 5719 5713 5706 5700 5695 5690 5685 5681 5677
5900 5893 5891 5888 5887 5884 5880 5878 5877 5870 5867 5866 5864 5851 5848 5846 5839 5833 5828 5820 5813 5807 5801 5795 5787 5780 5772 5764 5756 5749 5741 5733 5727 5721 5715 5708 5702 5696 5690 5684 5680 5675 5671 5668
5897 5892 5887 5885 5882 5878 5876 5874 5870 5863 5863 5864 5856 5849 5846 5843 5836 5829 5822 5815 5808 5801 5795 5788 5780 5773 5765 5756 5748 5741 5732 5725 5718 5712 5706 5698 5692 5686 5681 5675 5669 5665 5661 5658
5891 5889 5882 5878 5876 5873 5869 5866 5863 5862 5862 5860 5850 5849 5841 5838 5832 5826 5818 5810 5803 5796 5790 5782 5774 5767 5759 5750 5742 5733 5726 5718 5712 5705 5699 5692 5685 5677 5670 5664 5659 5655 5652 5649
5884 5884 5883 5876 5869 5867 5865 5862 5859 5857 5856 5856 5855 5845 5840 5835 5828 5821 5814 5807 5798 5791 5783 5775 5767 5761 5753 5744 5736 5729 5721 5714 5708 5701 5693 5685 5676 5669 5662 5657 5653 5650 5647 5644
5879 5878 5877 5873 5867 5865 5860 5857 5855 5853 5853 5853 5849 5843 5837 5830 5823 5816 5808 5801 5793 5784 5777 5770 5760 5755 5746 5740 5733 5726 5719 5713 5705 5697 5689 5680 5671 5666 5661 5656 5652 5649 5646 5644
5875 5871 5872 5867 5861 5857 5858 5856 5854 5852 5849 5848 5845 5838 5832 5826 5818 5811 5802 5793 5786 5779 5771 5764 5755 5748 5743 5737 5731 5725 5719 5712 5704 5695 5688 5680 5673 5667 5663 5658 5655 5651 5648 5646
5870 5868 5866 5865 5861 5858 5856 5854 5852 5850 5848 5845 5839 5834 5827 5821 5813 5803 5795 5788 5780 5773 5765 5759 5753 5746 5740 5735 5730 5726 5720 5714 5706 5697 5691 5685 5679 5673 5668 5663 5659 5655 5652 5649
5865 5862 5860 5858 5856 5854 5853 5852 5850 5848 5845 5841 5836 5830 5824 5817 5809 5800 5791 5783 5775 5767 5761 5756 5751 5745 5740 5735 5731 5726 5722 5717 5711 5704 5697 5691 5686 5681 5675 5671 5666 5662 5659 5656
5860 5857 5855 5854 5853 5852 5851 5850 5848 5845 5841 5838 5832 5826 5820 5812 5805 5795 5786 5779 5770 5763 5757 5753 5749 5744 5740 5736 5733 5729 5725 5720 5715 5710 5705 5699 5694 5689 5683 5679 5675 5671 5668 5665
5855 5853 5853 5853 5852 5851 5850 5848 5846 5843 5838 5835 5830 5823 5816 5806 5800 5791 5782 5774 5767 5760 5754 5750 5747 5744 5741 5738 5736 5732 5728 5723 5719 5715 5710 5705 5700 5696 5691 5687 5683 5680 5677 5674
5851 5850 5849 5850 5850 5850 5848 5846 5843 5840 5836 5831 5825 5819 5812 5803 5796 5788 5779 5771 5765 5759 5754 5750 5747 5744 5742 5740 5738 5734 5730 5727 5722 5719 5714 5710 5706 5703 5699 5695 5691 5688 5685 5682
5847 5848 5849 5848 5848 5848 5847 5845 5842 5837 5834 5828 5822 5815 5808 5801 5790 5785 5776 5769 5763 5758 5754 5750 5747 5745 5744 5742 5740 5736 5733 5730 5726 5723 5719 5715 5712 5709 5705 5702 5699 5696 5693 5690
5845 5845 5847 5847 5847 5846 5844 5842 5839 5834 5830 5823 5817 5811 5804 5797 5787 5779 5772 5765 5760 5755 5753 5750 5748 5747 5745 5744 5742 5739 5736 5733 5730 5728 5724 5721 5717 5715 5711 5709 5706 5704 5701 5698
5845 5844 5845 5845 5845 5844 5842 5839 5835 5831 5829 5821 5815 5808 5801 5794 5786 5776 5769 5762 5757 5753 5750 5749 5748 5747 5746 5745 5743 5741 5739 5736 5734 5732 5729 5726 5723 5721 5718 5716 5714 5711 5709 5707
5844 5845 5844 5844 5843 5842 5839 5836 5833 5829 5823 5817 5811 5805 5798 5790 5782 5774 5766 5759 5754 5750 5748 5747 5747 5747 5747 5747 5745 5743 5742 5740 5738 5735 5733 5731 5728 5727 5725 5722 5721 5718 5717 5715
5844 5844 5843 5843 5841 5839 5837 5833 5829 5825 5820 5815 5808 5802 5796 5788 5779 5770 5763 5757 5751 5747 5746 5746 5747 5748 5748 5748 5747 5746 5745 5743 5740 5739 5737 5736 5734 5732 5729 5729 5727 5726 5725 5724
5842 5842 5841 5841 5839 5837 5834 5831 5826 5822 5817 5811 5806 5800 5793 5786 5777 5768 5761 5755 5749 5745 5745 5746 5747 5748 5749 5749 5749 5749 5747 5746 5744 5743 5741 5740 5738 5737 5736 5735 5734 5733 5733 5732
5842 5841 5839 5838 5836 5834 5832 5828 5824 5819 5814 5808 5803 5797 5791 5784 5776 5768 5761 5755 5749 5746 5746 5747 5748 5750 5751 5751 5751 5751 5750 5749 5748 5747 5745 5744 5743 5742 5742 5741 5741 5740 5740 5739
5840 5839 5837 5836 5834 5831 5828 5825 5821 5816 5811 5806 5801 5795 5789 5783 5776 5769 5763 5758 5753 5750 5750 5750 5751 5752 5752 5753 5753 5753 5752 5751 5751 5750 5749 5748 5747 5747 5747 5747 5747 5746 5746 5746